[[{"header":{"parameterUnit":"m.s-1","parameterCategory":1,"la1":30.2991,"la2":30.254,"lo1":-89.0895,"lo2":-89.0444,"dy":0.0017,"dx":0.0017,"nx":28,"ny":28,"refTime":"2023-03-31T21:00:00:Z","depth":0,"parameterNumber":2,"parameterNumberName":"U-component_of_WINDS"},"data":[0,0,0,0,0,0,0,0,0,0,0,0,0,0,0,0,0,0,0,0,0,0,0,0,0,0,0,0,0,0,0,0,0,0,0,0,0,0,0,0,0,0,0,0,0,0,0,0,0,0,0,0,0,0,0,0,0,0,2.397,2.397,0,2.3941,2.3941,2.394,2.3912,2.3912,2.3911,2.3911,2.3883,2.3883,2.3882,0,0,0,0,0,0,0,0,0,0,0,0,0,2.4005,2.4005,2.397,2.3969,2.3969,2.3941,2.3941,2.394,2.3912,2.3912,2.3911,2.3911,2.3883,2.3883,2.3882,0,0,0,0,0,0,0,0,0,0,0,0,0,2.3985,2.4005,2.397,2.3952,2.395,2.3941,2.394,2.394,2.3912,2.3912,2.3911,2.3911,2.3883,2.3883,2.3882,2.3889,0,0,2.388,2.388,0,0,0,0,0,0,0,0,2.3986,2.3983,2.3955,2.3953,2.3951,2.3929,2.3943,2.3923,2.3912,2.3927,2.3911,2.391,2.3899,2.3897,2.3893,2.3888,2.3887,2.388,2.388,2.388,2.3879,0,0,0,0,0,0,0,2.3987,2.3984,2.3958,2.3954,2.3952,2.3947,2.3943,2.3939,2.3916,2.3925,2.3923,2.392,2.3898,2.3894,2.3892,2.3887,2.388,2.388,2.3879,2.3879,2.3891,2.3891,0,0,0,0,0,0,2.3991,2.3986,2.3959,2.3958,2.3967,2.3946,2.3942,2.3937,2.3916,2.3913,2.3921,2.3919,2.3895,2.3893,2.3891,2.39,2.388,2.3879,2.3879,2.389,2.3891,2.3892,0,0,0,0,0,0,2.3992,2.3989,2.396,2.3971,2.3967,2.3946,2.394,2.3937,2.3932,2.3913,2.3909,2.392,2.3894,2.3892,2.3891,2.3899,2.3879,2.3878,2.3889,2.389,2.3891,2.3918,0,0,0,0,0,0,2.3993,2.3989,2.399,2.3971,2.3967,2.3959,2.3941,2.3936,2.3931,2.3929,2.3911,2.3908,2.3894,2.3892,2.389,2.3898,2.3878,2.3888,2.389,2.3891,2.3916,2.392,2.3923,0,0,0,0,0,2.3994,2.3999,2.3991,2.3988,2.3967,2.396,2.3957,2.394,2.3932,2.3934,2.3922,2.3908,2.3899,2.3892,2.389,2.3897,2.3888,2.3889,2.3891,2.3915,2.3919,2.3923,0,0,0,0,0,0,2.4019,2.3996,2.3986,2.3984,2.3975,2.3955,2.3957,2.3945,2.3937,2.3935,2.3916,2.3912,2.3914,2.3906,2.3899,2.3906,2.3892,2.3893,2.3911,2.3915,2.3918,2.392,2.3877,0,0,0,0,0,2.4024,2.4019,2.3999,2.4,2.3995,2.3977,2.3973,2.3962,2.395,2.3946,2.3934,2.3925,2.392,2.3917,2.3911,2.3916,2.3913,2.392,2.3924,2.3926,2.3928,2.3933,2.3937,2.3897,2.3897,2.3897,0,0,2.4034,2.4021,2.4019,2.4004,2.3995,2.3992,2.3973,2.397,2.3968,2.3946,2.3944,2.3936,2.3924,2.3927,2.3928,2.392,2.3938,2.3928,2.3931,2.393,2.3935,2.3939,2.3942,2.3898,2.3897,2.3897,0,0,2.4052,2.4041,2.4041,2.4033,2.402,2.4009,2.4009,2.3992,2.3986,2.3984,2.3969,2.3967,2.3958,2.3952,2.3947,2.3968,2.3956,2.3967,2.3983,2.3989,2.3992,2.3995,2.4004,2.4007,2.3968,2.3968,2.3968,0,2.4066,2.406,2.4043,2.4041,2.4036,2.4017,2.4019,2.4012,2.3998,2.3996,2.3988,2.398,2.397,2.3973,2.3978,2.3975,2.3976,2.3968,2.3993,2.3995,2.3998,2.4006,2.4009,2.3969,2.3969,2.3969,2.3969,0,2.408,2.4076,2.4078,2.4066,2.4061,2.4061,2.4046,2.4045,2.4035,2.4025,2.4026,2.4015,2.4008,2.4008,2.3998,2.4011,2.4007,2.3996,2.3981,2.4003,2.4011,2.4014,2.3972,2.3971,2.3971,2.397,0,0,2.4108,2.409,2.4091,2.4087,2.4073,2.407,2.4071,2.4065,2.4065,2.4057,2.4059,2.4054,2.4045,2.4041,2.403,2.4035,2.4055,2.4024,2.4023,2.4031,2.4071,2.408,2.4084,2.4047,2.4048,2.4048,2.4073,0,2.4124,2.4123,2.411,2.4114,2.4112,2.4096,2.4098,2.4091,2.4083,2.4081,2.4073,2.4071,2.4058,2.4056,2.406,2.4051,2.4063,2.405,2.405,2.4051,2.4054,2.4087,2.4095,2.4118,2.4076,2.4076,2.4076,0,2.414,2.4135,2.4139,2.4129,2.4128,2.4129,2.4124,2.4123,2.4116,2.411,2.4107,2.4096,2.4099,2.4086,2.4091,2.4083,2.4083,2.4079,2.408,2.4079,2.4065,2.4089,2.4125,2.4129,2.4081,2.408,2.408,0,2.4163,2.4157,2.4159,2.4156,2.4144,2.4146,2.4141,2.4134,2.4132,2.4129,2.4128,2.4125,2.4124,2.4123,2.4113,2.4104,2.412,2.4105,2.4117,2.4117,2.412,2.412,2.4158,2.412,2.412,2.412,2.412,0,2.4182,2.4185,2.417,2.4171,2.4176,2.4162,2.4168,2.4162,2.4156,2.4158,2.4145,2.4147,2.4133,2.4134,2.4127,2.4134,2.4133,2.413,2.4128,2.4131,2.4132,2.4131,2.4129,2.4121,2.412,2.412,2.412,0,2.4206,2.4196,2.4198,2.4188,2.4185,2.4189,2.4181,2.4184,2.4177,2.4179,2.4179,2.4169,2.417,2.416,2.4159,2.4155,2.4166,2.4161,2.4168,2.4166,2.4179,2.4179,2.4218,2.4224,2.4181,2.4182,2.4182,0,2.4218,2.4221,2.4212,2.4213,2.4209,2.4209,2.4208,2.4197,2.4197,2.4192,2.4196,2.4196,2.4196,2.42,2.4193,2.4194,2.4189,2.4203,2.4189,2.4193,2.4191,2.4191,2.4192,2.4206,2.4206,2.4206,2.4207,0,2.4242,2.4238,2.4237,2.4236,2.4235,2.4233,2.4231,2.4232,2.422,2.4222,2.4223,2.4223,2.4225,2.4226,2.4226,2.4223,2.4214,2.4212,2.4215,2.4218,2.4223,2.4222,2.4177,2.421,2.421,2.421,2.421,2.421,2.4261,2.4264,2.426,2.426,2.4258,2.4257,2.4259,2.4254,2.4255,2.4255,2.4249,2.4253,2.4251,2.425,2.4248,2.4253,2.4246,2.425,2.4251,2.4252,2.4255,2.4223,2.4252,2.4252,2.4252,2.4252,2.4252,0,2.4285,2.4283,2.4283,2.4281,2.4283,2.4275,2.4273,2.4275,2.4279,2.4277,2.4278,2.4282,2.4285,2.428,2.4283,2.4288,2.4284,2.4289,2.4288,2.4288,2.426,2.4257,2.4292,2.4292,2.4292,2.4292,2.4292,2.4292,2.4298,2.4303,2.43,2.4305,2.4303,2.4306,2.4307,2.4307,2.4306,2.4311,2.4314,2.4311,2.4309,2.4312,2.4316,2.4315,2.4317,2.4323,2.4321,2.4294,2.429,2.4286,2.4284,2.4324,2.4324,2.4349,2.435,2.435]},{"header":{"parameterUnit":"m.s-1","parameterCategory":1,"la1":30.2991,"la2":30.254,"lo1":-89.0895,"lo2":-89.0444,"dy":0.0017,"dx":0.0017,"nx":28,"ny":28,"refTime":"2023-03-31T21:00:00:Z","depth":0,"parameterNumber":3,"parameterNumberName":"V-component_of_WINDS"},"data":[0,0,0,0,0,0,0,0,0,0,0,0,0,0,0,0,0,0,0,0,0,0,0,0,0,0,0,0,0,0,0,0,0,0,0,0,0,0,0,0,0,0,0,0,0,0,0,0,0,0,0,0,0,0,0,0,0,0,2.2992,2.2995,0,2.3252,2.3255,2.3258,2.3265,2.3261,2.3258,2.3255,2.3522,2.3532,2.3541,0,0,0,0,0,0,0,0,0,0,0,0,0,2.2498,2.2507,2.2992,2.2995,2.2999,2.3252,2.3255,2.3259,2.3265,2.3261,2.3257,2.3254,2.3518,2.353,2.3542,0,0,0,0,0,0,0,0,0,0,0,0,0,2.2731,2.251,2.2991,2.3032,2.3038,2.3251,2.3255,2.326,2.3266,2.3261,2.3256,2.3252,2.3514,2.3529,2.3544,2.3733,0,0,2.359,2.3597,0,0,0,0,0,0,0,0,2.2718,2.2749,2.3023,2.303,2.3037,2.3221,2.3179,2.3418,2.3267,2.318,2.3255,2.325,2.3426,2.3448,2.3507,2.3746,2.3757,2.3592,2.3601,2.3607,2.3612,0,0,0,0,0,0,0,2.2702,2.2738,2.3095,2.3027,2.3036,2.3037,2.3064,2.3224,2.3326,2.3187,2.3188,2.3219,2.3429,2.3492,2.3513,2.3761,2.3591,2.3605,2.3614,2.362,2.4162,2.4167,0,0,0,0,0,0,2.2678,2.2725,2.3087,2.3103,2.2862,2.3049,2.308,2.3167,2.3325,2.3344,2.3222,2.3218,2.3469,2.3496,2.3523,2.3751,2.3607,2.3621,2.363,2.4157,2.4164,2.4169,0,0,0,0,0,0,2.2667,2.271,2.3076,2.2914,2.2961,2.3063,2.316,2.3175,2.3238,2.3352,2.337,2.3269,2.3466,2.3501,2.368,2.376,2.3628,2.3642,2.4151,2.4159,2.4166,2.4211,0,0,0,0,0,0,2.2653,2.2706,2.278,2.2916,2.2969,2.323,2.3165,2.3183,2.3264,2.3261,2.34,2.3419,2.3465,2.3657,2.3695,2.3779,2.3654,2.4144,2.4154,2.4164,2.4203,2.422,2.4234,0,0,0,0,0,2.2635,2.2784,2.2784,2.2828,2.3064,2.3235,2.3265,2.3316,2.3271,2.3345,2.3417,2.3414,2.3745,2.3675,2.3718,2.3808,2.4139,2.4151,2.4163,2.4196,2.4217,2.4234,0,0,0,0,0,0,2.2657,2.2802,2.2804,2.3001,2.3105,2.3235,2.3331,2.3337,2.3456,2.3448,2.3506,2.3537,2.3713,2.3779,2.3697,2.3996,2.3937,2.3958,2.3947,2.3968,2.3983,2.3963,2.3666,0,0,0,0,0,2.2684,2.2811,2.2931,2.3093,2.3145,2.3229,2.3305,2.3335,2.3445,2.3489,2.3574,2.3681,2.3809,2.3892,2.4016,2.4212,2.4241,2.4295,2.431,2.4322,2.434,2.4444,2.4468,2.4209,2.4209,2.4209,0,0,2.2742,2.2838,2.2915,2.31,2.3184,2.3312,2.3266,2.3406,2.3501,2.3511,2.3683,2.3749,2.3871,2.4058,2.4145,2.4118,2.4417,2.4338,2.4347,2.4358,2.4458,2.4483,2.4504,2.4217,2.4216,2.4214,0,0,2.2914,2.3,2.3142,2.3226,2.3354,2.3408,2.3441,2.357,2.3614,2.3788,2.3796,2.391,2.413,2.4215,2.4288,2.4486,2.4486,2.4525,2.4606,2.4707,2.4727,2.4745,2.4813,2.4837,2.4542,2.4542,2.4542,0,2.297,2.3165,2.3215,2.3353,2.3432,2.3445,2.3588,2.3668,2.3829,2.3883,2.3851,2.4123,2.4208,2.4412,2.446,2.4519,2.4557,2.4509,2.472,2.4739,2.4757,2.4822,2.4847,2.4546,2.4545,2.4545,2.4544,0,2.3226,2.3361,2.346,2.3613,2.3704,2.3844,2.3913,2.3999,2.4019,2.4076,2.425,2.435,2.4493,2.4544,2.4566,2.4751,2.4729,2.4708,2.4649,2.4784,2.4846,2.4872,2.4551,2.4549,2.4548,2.4547,0,0,2.3421,2.3597,2.3632,2.37,2.3839,2.3943,2.4082,2.422,2.4291,2.4401,2.4517,2.47,2.4679,2.4761,2.4793,2.4881,2.5027,2.4849,2.4852,2.4876,2.5232,2.5245,2.5274,2.5028,2.5033,2.5037,2.522,0,2.3605,2.3852,2.3899,2.4113,2.4236,2.4248,2.4368,2.4465,2.4521,2.4631,2.4693,2.482,2.4786,2.4834,2.4922,2.4991,2.5099,2.4978,2.5134,2.5139,2.5102,2.5307,2.5323,2.5492,2.5245,2.5249,2.5252,0,2.3854,2.3968,2.4194,2.4312,2.4365,2.4473,2.46,2.4707,2.4816,2.485,2.4939,2.4959,2.5101,2.5035,2.523,2.5146,2.5212,2.5255,2.5263,2.5278,2.5203,2.5325,2.5547,2.5571,2.5292,2.5288,2.5286,0,2.3969,2.4179,2.434,2.4398,2.4541,2.4616,2.4679,2.4783,2.4861,2.4973,2.5024,2.5151,2.522,2.5316,2.5369,2.5317,2.5558,2.5498,2.5588,2.5586,2.5638,2.5634,2.5871,2.5684,2.5683,2.5683,2.5682,0,2.417,2.4307,2.4393,2.4492,2.4645,2.4696,2.4845,2.4907,2.4998,2.5108,2.5127,2.5229,2.5293,2.5404,2.5446,2.5598,2.563,2.5659,2.5668,2.5657,2.5653,2.57,2.5689,2.5689,2.5688,2.5687,2.5685,0,2.4324,2.4388,2.4564,2.4684,2.4717,2.4823,2.4925,2.502,2.5074,2.5212,2.5247,2.5332,2.5463,2.5525,2.5688,2.5715,2.5887,2.589,2.585,2.5853,2.5939,2.5929,2.6214,2.6252,2.6041,2.6043,2.6044,0,2.4447,2.4552,2.4682,2.4756,2.482,2.4941,2.502,2.5073,2.5154,2.5283,2.5362,2.5493,2.5601,2.5809,2.5884,2.6007,2.6011,2.6102,2.603,2.6013,2.6009,2.6002,2.6011,2.6115,2.6117,2.6119,2.612,0,2.4657,2.4682,2.4796,2.492,2.5013,2.5114,2.5212,2.5272,2.534,2.543,2.5563,2.5646,2.581,2.5939,2.6066,2.6129,2.6136,2.6142,2.6169,2.6158,2.6129,2.6143,2.5883,2.6136,2.6134,2.6133,2.6132,2.6131,2.4798,2.489,2.4995,2.512,2.5198,2.5289,2.5383,2.5447,2.5559,2.5696,2.5721,2.5861,2.5963,2.6134,2.6201,2.631,2.6289,2.6329,2.6339,2.6348,2.6351,2.6112,2.6334,2.6334,2.6334,2.6333,2.6333,0,2.5006,2.5073,2.5187,2.5323,2.542,2.5417,2.5524,2.5605,2.5729,2.5823,2.5928,2.6078,2.6202,2.6285,2.641,2.6481,2.6487,2.6512,2.6506,2.652,2.6364,2.6327,2.6505,2.6505,2.6505,2.6505,2.6505,2.6505,2.5126,2.5281,2.5318,2.551,2.5576,2.5714,2.5775,2.5857,2.5932,2.6099,2.6202,2.6255,2.6344,2.6474,2.6587,2.6608,2.6652,2.6677,2.6697,2.655,2.6532,2.6514,2.648,2.6687,2.6687,2.6844,2.6845,2.6846]}]]